| time (UTC) | temp C | wind direction | speed KPH | gust KPH | rain 1hr cm | rain 24hr cm | rain mn cm | humidity % | barometer mb |
| 20260510071528 | 20 | 177 | 0.0 | 4.8 | 0.00 | 0.00 | 0.00 | 83 | 1014.8 |
| 20260510070010 | 20 | 120 | 0.0 | 8.0 | 0.00 | 0.00 | 0.00 | 81 | 1015.0 |
| 20260510064549 | 20 | 206 | 0.0 | 4.8 | 0.00 | 0.00 | 0.00 | 80 | 1014.9 |
| 20260510063031 | 20 | 170 | 1.6 | 6.4 | 0.00 | 0.00 | 0.00 | 80 | 1015.0 |
| 20260510061507 | 20 | 160 | 1.6 | 4.8 | 0.00 | 0.00 | 0.00 | 80 | 1015.1 |
| 20260510060051 | 20 | 177 | 1.6 | 6.4 | 0.00 | 0.00 | 0.00 | 79 | 1015.0 |
| 20260510054523 | 20 | 162 | 1.6 | 4.8 | 0.00 | 0.00 | 0.00 | 78 | 1015.0 |
| 20260510053004 | 21 | 179 | 0.0 | 6.4 | 0.00 | 0.00 | 0.00 | 77 | 1014.8 |
| 20260510051554 | 21 | 133 | 0.0 | 6.4 | 0.00 | 0.00 | 0.00 | 77 | 1014.6 |
| 20260510050026 | 21 | 165 | 3.2 | 8.0 | 0.00 | 0.00 | 0.00 | 76 | 1014.6 |
| 20260510044505 | 21 | 163 | 3.2 | 9.7 | 0.00 | 0.00 | 0.00 | 75 | 1014.4 |
| 20260510043045 | 21 | 154 | 4.8 | 9.7 | 0.00 | 0.00 | 0.00 | 74 | 1014.6 |
| 20260510041527 | 21 | 149 | 3.2 | 9.7 | 0.00 | 0.00 | 0.00 | 72 | 1014.3 |
| 20260510040010 | 22 | 199 | 0.0 | 4.8 | 0.00 | 0.00 | 0.00 | 68 | 1014.5 |
| 20260510034547 | 22 | 27 | 0.0 | 4.8 | 0.00 | 0.00 | 0.00 | 65 | 1014.5 |
| 20260510033029 | 22 | 218 | 1.6 | 6.4 | 0.00 | 0.00 | 0.00 | 63 | 1014.3 |
| 20260510031509 | 22 | 91 | 1.6 | 4.8 | 0.00 | 0.00 | 0.00 | 60 | 1013.9 |
| 20260510030045 | 23 | 198 | 0.0 | 4.8 | 0.00 | 0.00 | 0.00 | 60 | 1013.8 |
| 20260510024529 | 23 | 94 | 1.6 | 4.8 | 0.00 | 0.00 | 0.00 | 58 | 1013.6 |
| 20260510023009 | 23 | 83 | 1.6 | 4.8 | 0.00 | 0.00 | 0.00 | 57 | 1013.5 |
| 20260510021637 | 23 | 80 | 1.6 | 6.4 | 0.00 | 0.00 | 0.00 | 58 | 1013.3 |
| 20260510020027 | 23 | 87 | 1.6 | 4.8 | 0.00 | 0.00 | 0.00 | 58 | 1013.3 |
| 20260510014521 | 23 | 76 | 1.6 | 4.8 | 0.00 | 0.00 | 0.00 | 59 | 1013.2 |
| 20260510013101 | 23 | 118 | 1.6 | 8.0 | 0.00 | 0.00 | 0.00 | 58 | 1013.0 |
| 20260510011529 | 24 | 91 | 0.0 | 6.4 | 0.00 | 0.00 | 0.00 | 59 | 1012.9 |
| 20260510010021 | 25 | 95 | 0.0 | 8.0 | 0.00 | 0.00 | 0.00 | 59 | 1012.7 |
| 20260510004552 | 25 | 85 | 6.4 | 9.7 | 0.00 | 0.00 | 0.00 | 58 | 1012.6 |
| 20260510003032 | 26 | 64 | 4.8 | 12.9 | 0.00 | 0.00 | 0.00 | 57 | 1012.4 |
| 20260510001512 | 26 | 57 | 6.4 | 11.3 | 0.00 | 0.00 | 0.00 | 55 | 1012.3 |
| 20260510000054 | 26 | 55 | 3.2 | 12.9 | 0.00 | 0.00 | 0.00 | 54 | 1012.2 |
| 20260509234535 | 27 | 67 | 4.8 | 14.5 | 0.00 | 0.00 | 0.00 | 54 | 1012.1 |
| 20260509233014 | 27 | 81 | 4.8 | 16.1 | 0.00 | 0.00 | 0.00 | 52 | 1012.0 |
| 20260509231556 | 27 | 27 | 4.8 | 16.1 | 0.00 | 0.00 | 0.00 | 51 | 1012.0 |
| 20260509230039 | 27 | 48 | 6.4 | 14.5 | 0.00 | 0.00 | 0.00 | 52 | 1012.0 |
| 20260509224523 | 28 | 52 | 4.8 | 14.5 | 0.00 | 0.00 | 0.00 | 53 | 1011.9 |
| 20260509223006 | 27 | 81 | 0.0 | 11.3 | 0.00 | 0.00 | 0.00 | 52 | 1011.8 |
| 20260509221549 | 27 | 56 | 4.8 | 14.5 | 0.00 | 0.00 | 0.00 | 54 | 1011.8 |
| 20260509220030 | 27 | 14 | 3.2 | 9.7 | 0.00 | 0.00 | 0.00 | 56 | 1011.7 |
| 20260509214511 | 27 | 66 | 3.2 | 11.3 | 0.00 | 0.00 | 0.00 | 53 | 1011.7 |
| 20260509213105 | 27 | 41 | 1.6 | 9.7 | 0.00 | 0.00 | 0.00 | 53 | 1011.6 |
| 20260509211536 | 29 | 29 | 6.4 | 14.5 | 0.00 | 0.00 | 0.00 | 49 | 1011.7 |
| 20260509210018 | 30 | 30 | 1.6 | 12.9 | 0.00 | 0.00 | 0.00 | 46 | 1011.8 |
| 20260509204557 | 29 | 48 | 4.8 | 11.3 | 0.00 | 0.00 | 0.00 | 47 | 1011.9 |
| 20260509203042 | 28 | 64 | 3.2 | 8.0 | 0.00 | 0.00 | 0.00 | 49 | 1012.0 |
| 20260509201526 | 28 | 62 | 4.8 | 17.7 | 0.00 | 0.00 | 0.00 | 48 | 1012.3 |
| 20260509200004 | 29 | 44 | 4.8 | 14.5 | 0.00 | 0.00 | 0.00 | 40 | 1012.4 |
| 20260509194557 | 30 | 334 | 4.8 | 12.9 | 0.00 | 0.00 | 0.00 | 46 | 1012.7 |
| 20260509193026 | 29 | 354 | 3.2 | 16.1 | 0.00 | 0.00 | 0.00 | 41 | 1012.8 |
| 20260509191514 | 28 | 164 | 0.0 | 17.7 | 0.00 | 0.00 | 0.00 | 46 | 1012.7 |
| 20260509190056 | 28 | 212 | 1.6 | 12.9 | 0.00 | 0.00 | 0.00 | 51 | 1012.7 |
| 20260509184539 | 28 | 199 | 0.0 | 6.4 | 0.00 | 0.00 | 0.00 | 47 | 1012.9 |
| 20260509183021 | 27 | 68 | 8.0 | 17.7 | 0.00 | 0.00 | 0.00 | 52 | 1013.1 |
| 20260509181605 | 27 | 74 | 6.4 | 14.5 | 0.00 | 0.00 | 0.00 | 55 | 1013.0 |
| 20260509180050 | 27 | 60 | 0.0 | 12.9 | 0.00 | 0.00 | 0.00 | 56 | 1013.3 |
| 20260509174517 | 27 | 4 | 3.2 | 8.0 | 0.00 | 0.00 | 0.00 | 57 | 1013.4 |
| 20260509173105 | 27 | 69 | 0.0 | 11.3 | 0.00 | 0.00 | 0.00 | 59 | 1013.5 |
| 20260509171536 | 26 | 349 | 1.6 | 9.7 | 0.00 | 0.00 | 0.00 | 62 | 1013.5 |
| 20260509170015 | 25 | 301 | 6.4 | 12.9 | 0.00 | 0.00 | 0.00 | 63 | 1013.5 |
| 20260509164546 | 25 | 332 | 6.4 | 12.9 | 0.00 | 0.00 | 0.00 | 64 | 1013.4 |
| 20260509163029 | 24 | 316 | 4.8 | 14.5 | 0.00 | 0.00 | 0.00 | 66 | 1013.3 |
| 20260509161509 | 23 | 255 | 1.6 | 14.5 | 0.00 | 0.00 | 0.00 | 68 | 1013.4 |
| 20260509160043 | 23 | 293 | 6.4 | 14.5 | 0.00 | 0.00 | 0.00 | 66 | 1013.5 |
| 20260509154523 | 23 | 262 | 6.4 | 14.5 | 0.00 | 0.00 | 0.00 | 65 | 1013.4 |
| 20260509153103 | 24 | 270 | 1.6 | 9.7 | 0.00 | 0.00 | 0.00 | 65 | 1013.4 |
| 20260509151537 | 23 | 318 | 1.6 | 6.4 | 0.00 | 0.00 | 0.00 | 67 | 1013.2 |
| 20260509150017 | 23 | 74 | 0.0 | 6.4 | 0.00 | 0.00 | 0.00 | 68 | 1013.1 |
| 20260509144552 | 23 | 299 | 1.6 | 6.4 | 0.00 | 0.00 | 0.00 | 66 | 1013.2 |
| 20260509143032 | 22 | 199 | 0.0 | 4.8 | 0.00 | 0.00 | 0.00 | 68 | 1013.4 |
| 20260509141507 | 22 | 254 | 0.0 | 6.4 | 0.00 | 0.00 | 0.00 | 67 | 1013.5 |
| 20260509140056 | 21 | 176 | 0.0 | 4.8 | 0.00 | 0.00 | 0.00 | 70 | 1013.5 |
| 20260509134520 | 20 | 148 | 0.0 | 4.8 | 0.00 | 0.00 | 0.00 | 74 | 1013.7 |
| 20260509133059 | 20 | 147 | 0.0 | 3.2 | 0.00 | 0.00 | 0.00 | 76 | 1013.6 |
| 20260509133002 | 20 | 170 | 0.0 | 3.2 | 0.00 | 0.00 | 0.00 | 76 | 1013.6 |
| 20260509131535 | 18 | 145 | 0.0 | 3.2 | 0.00 | 0.00 | 0.00 | 78 | 1013.5 |
| 20260509130015 | 18 | 152 | 0.0 | 3.2 | 0.00 | 0.00 | 0.00 | 80 | 1013.5 |
| 20260509124553 | 17 | 138 | 0.0 | 3.2 | 0.00 | 0.00 | 0.00 | 82 | 1013.4 |
| 20260509123029 | 16 | 156 | 1.6 | 8.0 | 0.00 | 0.00 | 0.00 | 83 | 1013.4 |
| 20260509121509 | 16 | 129 | 1.6 | 4.8 | 0.00 | 0.00 | 0.00 | 84 | 1013.3 |
| 20260509120042 | 15 | 134 | 1.6 | 6.4 | 0.00 | 0.00 | 0.00 | 86 | 1013.0 |
| 20260509114523 | 15 | 312 | 0.0 | 0.0 | 0.00 | 0.00 | 0.00 | 85 | 1012.7 |
| 20260509113059 | 15 | 312 | 0.0 | 1.6 | 0.00 | 0.00 | 0.00 | 85 | 1012.6 |
| 20260509111541 | 16 | 21 | 0.0 | 1.6 | 0.00 | 0.00 | 0.00 | 84 | 1012.4 |
| 20260509110017 | 16 | 17 | 0.0 | 3.2 | 0.00 | 0.00 | 0.00 | 84 | 1012.0 |
| 20260509104603 | 16 | 30 | 0.0 | 4.8 | 0.00 | 0.00 | 0.00 | 84 | 1011.8 |
| 20260509103051 | 16 | 68 | 0.0 | 1.6 | 0.00 | 0.00 | 0.00 | 83 | 1011.7 |
| 20260509101520 | 16 | 295 | 0.0 | 1.6 | 0.00 | 0.00 | 0.00 | 82 | 1011.8 |
| 20260509100006 | 16 | 295 | 0.0 | 0.0 | 0.00 | 0.00 | 0.00 | 81 | 1011.7 |
| 20260509094555 | 16 | 243 | 0.0 | 8.0 | 0.00 | 0.00 | 0.00 | 81 | 1011.4 |
| 20260509093031 | 16 | 288 | 0.0 | 1.6 | 0.00 | 0.00 | 0.00 | 80 | 1011.7 |
| 20260509091511 | 16 | 205 | 0.0 | 3.2 | 0.00 | 0.00 | 0.00 | 79 | 1011.9 |
| 20260509090056 | 17 | 172 | 0.0 | 4.8 | 0.00 | 0.00 | 0.00 | 79 | 1012.0 |
| 20260509084537 | 17 | 160 | 0.0 | 6.4 | 0.00 | 0.00 | 0.00 | 78 | 1011.7 |
| 20260509083016 | 17 | 283 | 4.8 | 9.7 | 0.00 | 0.00 | 0.00 | 78 | 1011.6 |
| 20260509081554 | 17 | 314 | 3.2 | 11.3 | 0.00 | 0.00 | 0.00 | 78 | 1011.4 |
| 20260509080039 | 17 | 185 | 0.0 | 4.8 | 0.00 | 0.00 | 0.00 | 77 | 1011.8 |
| 20260509074516 | 18 | 171 | 1.6 | 9.7 | 0.00 | 0.00 | 0.00 | 77 | 1011.9 |
| 20260509073108 | 18 | 208 | 3.2 | 9.7 | 0.00 | 0.00 | 0.00 | 77 | 1011.7 |